Index of /20260422/WXO-DD/model_rdps/10km/00/069
Name Last modified Size Description
Parent Directory -
20260422T00Z_MSC_RDPS_AbsoluteVorticity_IsbL-0250_RLatLon0.09_PT069H.grib2 2026-04-22 03:06 623K
20260422T00Z_MSC_RDPS_AbsoluteVorticity_IsbL-0500_RLatLon0.09_PT069H.grib2 2026-04-22 03:06 574K
20260422T00Z_MSC_RDPS_AbsoluteVorticity_IsbL-0700_RLatLon0.09_PT069H.grib2 2026-04-22 03:06 630K
20260422T00Z_MSC_RDPS_AbsoluteVorticity_IsbL-0850_RLatLon0.09_PT069H.grib2 2026-04-22 03:06 784K
20260422T00Z_MSC_RDPS_AirTemp_AGL-120m_RLatLon0.09_PT069H.grib2 2026-04-22 03:06 396K
20260422T00Z_MSC_RDPS_AirTemp_AGL-2m_RLatLon0.09_PT069H.grib2 2026-04-22 03:06 633K
20260422T00Z_MSC_RDPS_AirTemp_AGL-40m_RLatLon0.09_PT069H.grib2 2026-04-22 03:06 405K
20260422T00Z_MSC_RDPS_AirTemp_AGL-80m_RLatLon0.09_PT069H.grib2 2026-04-22 03:06 401K
20260422T00Z_MSC_RDPS_AirTemp_IsbL-0001_RLatLon0.09_PT069H.grib2 2026-04-22 03:06 282K
20260422T00Z_MSC_RDPS_AirTemp_IsbL-0005_RLatLon0.09_PT069H.grib2 2026-04-22 03:06 336K
20260422T00Z_MSC_RDPS_AirTemp_IsbL-0010_RLatLon0.09_PT069H.grib2 2026-04-22 03:06 310K
20260422T00Z_MSC_RDPS_AirTemp_IsbL-0020_RLatLon0.09_PT069H.grib2 2026-04-22 03:06 332K
20260422T00Z_MSC_RDPS_AirTemp_IsbL-0030_RLatLon0.09_PT069H.grib2 2026-04-22 03:06 354K
20260422T00Z_MSC_RDPS_AirTemp_IsbL-0050_RLatLon0.09_PT069H.grib2 2026-04-22 03:06 332K
20260422T00Z_MSC_RDPS_AirTemp_IsbL-0100_RLatLon0.09_PT069H.grib2 2026-04-22 03:06 435K
20260422T00Z_MSC_RDPS_AirTemp_IsbL-0150_RLatLon0.09_PT069H.grib2 2026-04-22 03:06 438K
20260422T00Z_MSC_RDPS_AirTemp_IsbL-0175_RLatLon0.09_PT069H.grib2 2026-04-22 03:06 432K
20260422T00Z_MSC_RDPS_AirTemp_IsbL-0200_RLatLon0.09_PT069H.grib2 2026-04-22 03:06 431K
20260422T00Z_MSC_RDPS_AirTemp_IsbL-0225_RLatLon0.09_PT069H.grib2 2026-04-22 03:06 429K
20260422T00Z_MSC_RDPS_AirTemp_IsbL-0250_RLatLon0.09_PT069H.grib2 2026-04-22 03:06 432K
20260422T00Z_MSC_RDPS_AirTemp_IsbL-0275_RLatLon0.09_PT069H.grib2 2026-04-22 03:06 411K
20260422T00Z_MSC_RDPS_AirTemp_IsbL-0300_RLatLon0.09_PT069H.grib2 2026-04-22 03:06 417K
20260422T00Z_MSC_RDPS_AirTemp_IsbL-0350_RLatLon0.09_PT069H.grib2 2026-04-22 03:06 429K
20260422T00Z_MSC_RDPS_AirTemp_IsbL-0400_RLatLon0.09_PT069H.grib2 2026-04-22 03:06 395K
20260422T00Z_MSC_RDPS_AirTemp_IsbL-0450_RLatLon0.09_PT069H.grib2 2026-04-22 03:06 403K
20260422T00Z_MSC_RDPS_AirTemp_IsbL-0500_RLatLon0.09_PT069H.grib2 2026-04-22 03:06 414K
20260422T00Z_MSC_RDPS_AirTemp_IsbL-0550_RLatLon0.09_PT069H.grib2 2026-04-22 03:06 434K
20260422T00Z_MSC_RDPS_AirTemp_IsbL-0600_RLatLon0.09_PT069H.grib2 2026-04-22 03:06 454K
20260422T00Z_MSC_RDPS_AirTemp_IsbL-0650_RLatLon0.09_PT069H.grib2 2026-04-22 03:06 469K
20260422T00Z_MSC_RDPS_AirTemp_IsbL-0700_RLatLon0.09_PT069H.grib2 2026-04-22 03:06 495K
20260422T00Z_MSC_RDPS_AirTemp_IsbL-0750_RLatLon0.09_PT069H.grib2 2026-04-22 03:06 420K
20260422T00Z_MSC_RDPS_AirTemp_IsbL-0800_RLatLon0.09_PT069H.grib2 2026-04-22 03:06 463K
20260422T00Z_MSC_RDPS_AirTemp_IsbL-0850_RLatLon0.09_PT069H.grib2 2026-04-22 03:06 503K
20260422T00Z_MSC_RDPS_AirTemp_IsbL-0875_RLatLon0.09_PT069H.grib2 2026-04-22 03:06 519K
20260422T00Z_MSC_RDPS_AirTemp_IsbL-0900_RLatLon0.09_PT069H.grib2 2026-04-22 03:06 529K
20260422T00Z_MSC_RDPS_AirTemp_IsbL-0925_RLatLon0.09_PT069H.grib2 2026-04-22 03:06 527K
20260422T00Z_MSC_RDPS_AirTemp_IsbL-0950_RLatLon0.09_PT069H.grib2 2026-04-22 03:06 538K
20260422T00Z_MSC_RDPS_AirTemp_IsbL-0970_RLatLon0.09_PT069H.grib2 2026-04-22 03:06 528K
20260422T00Z_MSC_RDPS_AirTemp_IsbL-0985_RLatLon0.09_PT069H.grib2 2026-04-22 03:06 518K
20260422T00Z_MSC_RDPS_AirTemp_IsbL-1000_RLatLon0.09_PT069H.grib2 2026-04-22 03:06 516K
20260422T00Z_MSC_RDPS_AirTemp_IsbL-1015_RLatLon0.09_PT069H.grib2 2026-04-22 03:06 514K
20260422T00Z_MSC_RDPS_Albedo_Sfc_RLatLon0.09_PT069H.grib2 2026-04-22 03:06 167K
20260422T00Z_MSC_RDPS_CAPE_Sfc_RLatLon0.09_PT069H.grib2 2026-04-22 03:06 1.7M
20260422T00Z_MSC_RDPS_CIN_Sfc_RLatLon0.09_PT069H.grib2 2026-04-22 03:06 1.2M
20260422T00Z_MSC_RDPS_CloudWater_EAtm_RLatLon0.09_PT069H.grib2 2026-04-22 03:06 221K
20260422T00Z_MSC_RDPS_ConvectivePrecip-Accum_Sfc_RLatLon0.09_PT069H.grib2 2026-04-22 03:06 1.3M
20260422T00Z_MSC_RDPS_DewPointDepression_AGL-2m_RLatLon0.09_PT069H.grib2 2026-04-22 03:06 419K
20260422T00Z_MSC_RDPS_DewPointDepression_IsbL-0001_RLatLon0.09_PT069H.grib2 2026-04-22 03:06 193
20260422T00Z_MSC_RDPS_DewPointDepression_IsbL-0005_RLatLon0.09_PT069H.grib2 2026-04-22 03:06 193
20260422T00Z_MSC_RDPS_DewPointDepression_IsbL-0010_RLatLon0.09_PT069H.grib2 2026-04-22 03:06 193
20260422T00Z_MSC_RDPS_DewPointDepression_IsbL-0020_RLatLon0.09_PT069H.grib2 2026-04-22 03:06 193
20260422T00Z_MSC_RDPS_DewPointDepression_IsbL-0030_RLatLon0.09_PT069H.grib2 2026-04-22 03:06 193
20260422T00Z_MSC_RDPS_DewPointDepression_IsbL-0050_RLatLon0.09_PT069H.grib2 2026-04-22 03:06 100K
20260422T00Z_MSC_RDPS_DewPointDepression_IsbL-0100_RLatLon0.09_PT069H.grib2 2026-04-22 03:06 134K
20260422T00Z_MSC_RDPS_DewPointDepression_IsbL-0150_RLatLon0.09_PT069H.grib2 2026-04-22 03:06 157K
20260422T00Z_MSC_RDPS_DewPointDepression_IsbL-0175_RLatLon0.09_PT069H.grib2 2026-04-22 03:06 201K
20260422T00Z_MSC_RDPS_DewPointDepression_IsbL-0200_RLatLon0.09_PT069H.grib2 2026-04-22 03:06 233K
20260422T00Z_MSC_RDPS_DewPointDepression_IsbL-0225_RLatLon0.09_PT069H.grib2 2026-04-22 03:06 269K
20260422T00Z_MSC_RDPS_DewPointDepression_IsbL-0250_RLatLon0.09_PT069H.grib2 2026-04-22 03:06 304K
20260422T00Z_MSC_RDPS_DewPointDepression_IsbL-0275_RLatLon0.09_PT069H.grib2 2026-04-22 03:06 313K
20260422T00Z_MSC_RDPS_DewPointDepression_IsbL-0300_RLatLon0.09_PT069H.grib2 2026-04-22 03:06 335K
20260422T00Z_MSC_RDPS_DewPointDepression_IsbL-0350_RLatLon0.09_PT069H.grib2 2026-04-22 03:06 341K
20260422T00Z_MSC_RDPS_DewPointDepression_IsbL-0400_RLatLon0.09_PT069H.grib2 2026-04-22 03:06 357K
20260422T00Z_MSC_RDPS_DewPointDepression_IsbL-0450_RLatLon0.09_PT069H.grib2 2026-04-22 03:06 365K
20260422T00Z_MSC_RDPS_DewPointDepression_IsbL-0500_RLatLon0.09_PT069H.grib2 2026-04-22 03:06 373K
20260422T00Z_MSC_RDPS_DewPointDepression_IsbL-0550_RLatLon0.09_PT069H.grib2 2026-04-22 03:06 386K
20260422T00Z_MSC_RDPS_DewPointDepression_IsbL-0600_RLatLon0.09_PT069H.grib2 2026-04-22 03:06 396K
20260422T00Z_MSC_RDPS_DewPointDepression_IsbL-0650_RLatLon0.09_PT069H.grib2 2026-04-22 03:06 402K
20260422T00Z_MSC_RDPS_DewPointDepression_IsbL-0700_RLatLon0.09_PT069H.grib2 2026-04-22 03:06 413K
20260422T00Z_MSC_RDPS_DewPointDepression_IsbL-0750_RLatLon0.09_PT069H.grib2 2026-04-22 03:06 433K
20260422T00Z_MSC_RDPS_DewPointDepression_IsbL-0800_RLatLon0.09_PT069H.grib2 2026-04-22 03:06 457K
20260422T00Z_MSC_RDPS_DewPointDepression_IsbL-0850_RLatLon0.09_PT069H.grib2 2026-04-22 03:06 470K
20260422T00Z_MSC_RDPS_DewPointDepression_IsbL-0875_RLatLon0.09_PT069H.grib2 2026-04-22 03:06 471K
20260422T00Z_MSC_RDPS_DewPointDepression_IsbL-0900_RLatLon0.09_PT069H.grib2 2026-04-22 03:06 467K
20260422T00Z_MSC_RDPS_DewPointDepression_IsbL-0925_RLatLon0.09_PT069H.grib2 2026-04-22 03:06 455K
20260422T00Z_MSC_RDPS_DewPointDepression_IsbL-0950_RLatLon0.09_PT069H.grib2 2026-04-22 03:06 446K
20260422T00Z_MSC_RDPS_DewPointDepression_IsbL-0970_RLatLon0.09_PT069H.grib2 2026-04-22 03:06 439K
20260422T00Z_MSC_RDPS_DewPointDepression_IsbL-0985_RLatLon0.09_PT069H.grib2 2026-04-22 03:06 434K
20260422T00Z_MSC_RDPS_DewPointDepression_IsbL-1000_RLatLon0.09_PT069H.grib2 2026-04-22 03:06 430K
20260422T00Z_MSC_RDPS_DewPointDepression_IsbL-1015_RLatLon0.09_PT069H.grib2 2026-04-22 03:06 417K
20260422T00Z_MSC_RDPS_DewPoint_AGL-2m_RLatLon0.09_PT069H.grib2 2026-04-22 03:06 401K
20260422T00Z_MSC_RDPS_DownwardLongwaveRadiationFlux-Accum_Sfc_RLatLon0.09_PT069H.grib2 2026-04-22 03:06 423K
20260422T00Z_MSC_RDPS_DownwardShortwaveRadiationFlux-Accum_NTAtm_RLatLon0.09_PT069H.grib2 2026-04-22 03:06 113K
20260422T00Z_MSC_RDPS_DownwardShortwaveRadiationFlux-Accum_Sfc_RLatLon0.09_PT069H.grib2 2026-04-22 03:06 610K
20260422T00Z_MSC_RDPS_FreezingRain-Accum1h_Sfc_RLatLon0.09_PT069H.grib2 2026-04-22 03:06 16K
20260422T00Z_MSC_RDPS_FreezingRain-Accum3h_Sfc_RLatLon0.09_PT069H.grib2 2026-04-22 03:06 21K
20260422T00Z_MSC_RDPS_FreezingRain-Accum_Sfc_RLatLon0.09_PT069H.grib2 2026-04-22 03:06 166K
20260422T00Z_MSC_RDPS_GeopotentialHeight_IsbL-0001_RLatLon0.09_PT069H.grib2 2026-04-22 03:06 280K
20260422T00Z_MSC_RDPS_GeopotentialHeight_IsbL-0005_RLatLon0.09_PT069H.grib2 2026-04-22 03:06 345K
20260422T00Z_MSC_RDPS_GeopotentialHeight_IsbL-0010_RLatLon0.09_PT069H.grib2 2026-04-22 03:06 315K
20260422T00Z_MSC_RDPS_GeopotentialHeight_IsbL-0020_RLatLon0.09_PT069H.grib2 2026-04-22 03:06 411K
20260422T00Z_MSC_RDPS_GeopotentialHeight_IsbL-0030_RLatLon0.09_PT069H.grib2 2026-04-22 03:06 317K
20260422T00Z_MSC_RDPS_GeopotentialHeight_IsbL-0050_RLatLon0.09_PT069H.grib2 2026-04-22 03:06 317K
20260422T00Z_MSC_RDPS_GeopotentialHeight_IsbL-0100_RLatLon0.09_PT069H.grib2 2026-04-22 03:06 295K
20260422T00Z_MSC_RDPS_GeopotentialHeight_IsbL-0150_RLatLon0.09_PT069H.grib2 2026-04-22 03:06 235K
20260422T00Z_MSC_RDPS_GeopotentialHeight_IsbL-0175_RLatLon0.09_PT069H.grib2 2026-04-22 03:06 240K
20260422T00Z_MSC_RDPS_GeopotentialHeight_IsbL-0200_RLatLon0.09_PT069H.grib2 2026-04-22 03:06 244K
20260422T00Z_MSC_RDPS_GeopotentialHeight_IsbL-0225_RLatLon0.09_PT069H.grib2 2026-04-22 03:06 276K
20260422T00Z_MSC_RDPS_GeopotentialHeight_IsbL-0250_RLatLon0.09_PT069H.grib2 2026-04-22 03:06 276K
20260422T00Z_MSC_RDPS_GeopotentialHeight_IsbL-0275_RLatLon0.09_PT069H.grib2 2026-04-22 03:06 245K
20260422T00Z_MSC_RDPS_GeopotentialHeight_IsbL-0300_RLatLon0.09_PT069H.grib2 2026-04-22 03:06 243K
20260422T00Z_MSC_RDPS_GeopotentialHeight_IsbL-0350_RLatLon0.09_PT069H.grib2 2026-04-22 03:06 239K
20260422T00Z_MSC_RDPS_GeopotentialHeight_IsbL-0400_RLatLon0.09_PT069H.grib2 2026-04-22 03:06 234K
20260422T00Z_MSC_RDPS_GeopotentialHeight_IsbL-0450_RLatLon0.09_PT069H.grib2 2026-04-22 03:06 303K
20260422T00Z_MSC_RDPS_GeopotentialHeight_IsbL-0500_RLatLon0.09_PT069H.grib2 2026-04-22 03:06 298K
20260422T00Z_MSC_RDPS_GeopotentialHeight_IsbL-0550_RLatLon0.09_PT069H.grib2 2026-04-22 03:06 293K
20260422T00Z_MSC_RDPS_GeopotentialHeight_IsbL-0600_RLatLon0.09_PT069H.grib2 2026-04-22 03:06 287K
20260422T00Z_MSC_RDPS_GeopotentialHeight_IsbL-0650_RLatLon0.09_PT069H.grib2 2026-04-22 03:06 259K
20260422T00Z_MSC_RDPS_GeopotentialHeight_IsbL-0700_RLatLon0.09_PT069H.grib2 2026-04-22 03:06 256K
20260422T00Z_MSC_RDPS_GeopotentialHeight_IsbL-0750_RLatLon0.09_PT069H.grib2 2026-04-22 03:06 340K
20260422T00Z_MSC_RDPS_GeopotentialHeight_IsbL-0800_RLatLon0.09_PT069H.grib2 2026-04-22 03:06 347K
20260422T00Z_MSC_RDPS_GeopotentialHeight_IsbL-0850_RLatLon0.09_PT069H.grib2 2026-04-22 03:06 355K
20260422T00Z_MSC_RDPS_GeopotentialHeight_IsbL-0875_RLatLon0.09_PT069H.grib2 2026-04-22 03:06 359K
20260422T00Z_MSC_RDPS_GeopotentialHeight_IsbL-0900_RLatLon0.09_PT069H.grib2 2026-04-22 03:06 362K
20260422T00Z_MSC_RDPS_GeopotentialHeight_IsbL-0925_RLatLon0.09_PT069H.grib2 2026-04-22 03:06 364K
20260422T00Z_MSC_RDPS_GeopotentialHeight_IsbL-0950_RLatLon0.09_PT069H.grib2 2026-04-22 03:06 283K
20260422T00Z_MSC_RDPS_GeopotentialHeight_IsbL-0970_RLatLon0.09_PT069H.grib2 2026-04-22 03:06 288K
20260422T00Z_MSC_RDPS_GeopotentialHeight_IsbL-0985_RLatLon0.09_PT069H.grib2 2026-04-22 03:06 296K
20260422T00Z_MSC_RDPS_GeopotentialHeight_IsbL-1000_RLatLon0.09_PT069H.grib2 2026-04-22 03:06 307K
20260422T00Z_MSC_RDPS_GeopotentialHeight_IsbL-1015_RLatLon0.09_PT069H.grib2 2026-04-22 03:06 319K
20260422T00Z_MSC_RDPS_Humidex_Sfc_RLatLon0.09_PT069H.grib2 2026-04-22 03:06 2.4M
20260422T00Z_MSC_RDPS_IcePellets-Accum1h_Sfc_RLatLon0.09_PT069H.grib2 2026-04-22 03:06 22K
20260422T00Z_MSC_RDPS_IcePellets-Accum3h_Sfc_RLatLon0.09_PT069H.grib2 2026-04-22 03:06 22K
20260422T00Z_MSC_RDPS_IcePellets-Accum_Sfc_RLatLon0.09_PT069H.grib2 2026-04-22 03:06 84K
20260422T00Z_MSC_RDPS_KIndex_Sfc_RLatLon0.09_PT069H.grib2 2026-04-22 03:06 2.5M
20260422T00Z_MSC_RDPS_LatentHeatNetFlux_Sfc_RLatLon0.09_PT069H.grib2 2026-04-22 03:06 297K
20260422T00Z_MSC_RDPS_LiftedIndex-MU-VT_IsbL-0500_RLatLon0.09_PT069H.grib2 2026-04-22 03:06 2.4M
20260422T00Z_MSC_RDPS_NetLongwaveRadiationFlux-Accum_Sfc_RLatLon0.09_PT069H.grib2 2026-04-22 03:06 604K
20260422T00Z_MSC_RDPS_NetShortwaveRadiationFlux-Accum_Sfc_RLatLon0.09_PT069H.grib2 2026-04-22 03:06 620K
20260422T00Z_MSC_RDPS_PlanetaryBoundaryLayerHeight_Sfc_RLatLon0.09_PT069H.grib2 2026-04-22 03:06 1.0M
20260422T00Z_MSC_RDPS_Precip-Accum1h_Sfc_RLatLon0.09_PT069H.grib2 2026-04-22 03:06 1.2M
20260422T00Z_MSC_RDPS_Precip-Accum3h_Sfc_RLatLon0.09_PT069H.grib2 2026-04-22 03:06 1.3M
20260422T00Z_MSC_RDPS_Precip-Accum_Sfc_RLatLon0.09_PT069H.grib2 2026-04-22 03:06 2.2M
20260422T00Z_MSC_RDPS_PrecipRate_Sfc_RLatLon0.09_PT069H.grib2 2026-04-22 03:06 196K
20260422T00Z_MSC_RDPS_PrecipType-Instant_Sfc_RLatLon0.09_PT069H.grib2 2026-04-22 03:06 601K
20260422T00Z_MSC_RDPS_Pressure-Trend3h_Sfc_RLatLon0.09_PT069H.grib2 2026-04-22 03:06 1.2M
20260422T00Z_MSC_RDPS_Pressure_MSL_RLatLon0.09_PT069H.grib2 2026-04-22 03:06 331K
20260422T00Z_MSC_RDPS_Pressure_PVU-1.5_RLatLon0.09_PT069H.grib2 2026-04-22 03:06 2.5M
20260422T00Z_MSC_RDPS_Pressure_PVU-1_RLatLon0.09_PT069H.grib2 2026-04-22 03:06 2.4M
20260422T00Z_MSC_RDPS_Pressure_PVU-2_RLatLon0.09_PT069H.grib2 2026-04-22 03:06 2.4M
20260422T00Z_MSC_RDPS_Pressure_Sfc_RLatLon0.09_PT069H.grib2 2026-04-22 03:06 500K
20260422T00Z_MSC_RDPS_RadiativeTemp_Sfc_RLatLon0.09_PT069H.grib2 2026-04-22 03:06 332K
20260422T00Z_MSC_RDPS_Rain-Accum1h_Sfc_RLatLon0.09_PT069H.grib2 2026-04-22 03:06 578K
20260422T00Z_MSC_RDPS_Rain-Accum3h_Sfc_RLatLon0.09_PT069H.grib2 2026-04-22 03:06 656K
20260422T00Z_MSC_RDPS_Rain-Accum_Sfc_RLatLon0.09_PT069H.grib2 2026-04-22 03:06 1.7M
20260422T00Z_MSC_RDPS_RelativeHumidity_AGL-2m_RLatLon0.09_PT069H.grib2 2026-04-22 03:06 1.0M
20260422T00Z_MSC_RDPS_RelativeHumidity_IsbL-0010_RLatLon0.09_PT069H.grib2 2026-04-22 03:06 623K
20260422T00Z_MSC_RDPS_RelativeHumidity_IsbL-0020_RLatLon0.09_PT069H.grib2 2026-04-22 03:06 656K
20260422T00Z_MSC_RDPS_RelativeHumidity_IsbL-0030_RLatLon0.09_PT069H.grib2 2026-04-22 03:06 551K
20260422T00Z_MSC_RDPS_RelativeHumidity_IsbL-0050_RLatLon0.09_PT069H.grib2 2026-04-22 03:06 282K
20260422T00Z_MSC_RDPS_RelativeHumidity_IsbL-0100_RLatLon0.09_PT069H.grib2 2026-04-22 03:06 272K
20260422T00Z_MSC_RDPS_RelativeHumidity_IsbL-0150_RLatLon0.09_PT069H.grib2 2026-04-22 03:06 397K
20260422T00Z_MSC_RDPS_RelativeHumidity_IsbL-0175_RLatLon0.09_PT069H.grib2 2026-04-22 03:06 504K
20260422T00Z_MSC_RDPS_RelativeHumidity_IsbL-0200_RLatLon0.09_PT069H.grib2 2026-04-22 03:06 584K
20260422T00Z_MSC_RDPS_RelativeHumidity_IsbL-0225_RLatLon0.09_PT069H.grib2 2026-04-22 03:06 651K
20260422T00Z_MSC_RDPS_RelativeHumidity_IsbL-0250_RLatLon0.09_PT069H.grib2 2026-04-22 03:06 716K
20260422T00Z_MSC_RDPS_RelativeHumidity_IsbL-0275_RLatLon0.09_PT069H.grib2 2026-04-22 03:06 739K
20260422T00Z_MSC_RDPS_RelativeHumidity_IsbL-0300_RLatLon0.09_PT069H.grib2 2026-04-22 03:06 779K
20260422T00Z_MSC_RDPS_RelativeHumidity_IsbL-0350_RLatLon0.09_PT069H.grib2 2026-04-22 03:06 794K
20260422T00Z_MSC_RDPS_RelativeHumidity_IsbL-0400_RLatLon0.09_PT069H.grib2 2026-04-22 03:06 813K
20260422T00Z_MSC_RDPS_RelativeHumidity_IsbL-0450_RLatLon0.09_PT069H.grib2 2026-04-22 03:06 816K
20260422T00Z_MSC_RDPS_RelativeHumidity_IsbL-0500_RLatLon0.09_PT069H.grib2 2026-04-22 03:06 826K
20260422T00Z_MSC_RDPS_RelativeHumidity_IsbL-0550_RLatLon0.09_PT069H.grib2 2026-04-22 03:06 846K
20260422T00Z_MSC_RDPS_RelativeHumidity_IsbL-0600_RLatLon0.09_PT069H.grib2 2026-04-22 03:06 875K
20260422T00Z_MSC_RDPS_RelativeHumidity_IsbL-0650_RLatLon0.09_PT069H.grib2 2026-04-22 03:06 879K
20260422T00Z_MSC_RDPS_RelativeHumidity_IsbL-0700_RLatLon0.09_PT069H.grib2 2026-04-22 03:06 902K
20260422T00Z_MSC_RDPS_RelativeHumidity_IsbL-0750_RLatLon0.09_PT069H.grib2 2026-04-22 03:06 944K
20260422T00Z_MSC_RDPS_RelativeHumidity_IsbL-0800_RLatLon0.09_PT069H.grib2 2026-04-22 03:06 1.0M
20260422T00Z_MSC_RDPS_RelativeHumidity_IsbL-0850_RLatLon0.09_PT069H.grib2 2026-04-22 03:06 1.0M
20260422T00Z_MSC_RDPS_RelativeHumidity_IsbL-0875_RLatLon0.09_PT069H.grib2 2026-04-22 03:06 1.1M
20260422T00Z_MSC_RDPS_RelativeHumidity_IsbL-0900_RLatLon0.09_PT069H.grib2 2026-04-22 03:06 1.1M
20260422T00Z_MSC_RDPS_RelativeHumidity_IsbL-0925_RLatLon0.09_PT069H.grib2 2026-04-22 03:06 1.1M
20260422T00Z_MSC_RDPS_RelativeHumidity_IsbL-0950_RLatLon0.09_PT069H.grib2 2026-04-22 03:06 1.1M
20260422T00Z_MSC_RDPS_RelativeHumidity_IsbL-0970_RLatLon0.09_PT069H.grib2 2026-04-22 03:06 1.1M
20260422T00Z_MSC_RDPS_RelativeHumidity_IsbL-0985_RLatLon0.09_PT069H.grib2 2026-04-22 03:06 1.0M
20260422T00Z_MSC_RDPS_RelativeHumidity_IsbL-1000_RLatLon0.09_PT069H.grib2 2026-04-22 03:06 1.0M
20260422T00Z_MSC_RDPS_RelativeHumidity_IsbL-1015_RLatLon0.09_PT069H.grib2 2026-04-22 03:06 1.0M
20260422T00Z_MSC_RDPS_Runoff-Accum_Sfc_RLatLon0.09_PT069H.grib2 2026-04-22 03:06 50K
20260422T00Z_MSC_RDPS_SWEATIndex_Sfc_RLatLon0.09_PT069H.grib2 2026-04-22 03:06 2.4M
20260422T00Z_MSC_RDPS_SeeingIndex_EAtm_RLatLon0.09_PT069H.grib2 2026-04-22 03:06 1.0M
20260422T00Z_MSC_RDPS_SensibleHeatNetFlux_Sfc_RLatLon0.09_PT069H.grib2 2026-04-22 03:06 355K
20260422T00Z_MSC_RDPS_ShowalterIndex_IsbL-0500_RLatLon0.09_PT069H.grib2 2026-04-22 03:06 2.6M
20260422T00Z_MSC_RDPS_SkyTransparencyIndex_EAtm_RLatLon0.09_PT069H.grib2 2026-04-22 03:06 723K
20260422T00Z_MSC_RDPS_Snow-Accum1h_Sfc_RLatLon0.09_PT069H.grib2 2026-04-22 03:06 511K
20260422T00Z_MSC_RDPS_Snow-Accum3h_Sfc_RLatLon0.09_PT069H.grib2 2026-04-22 03:06 432K
20260422T00Z_MSC_RDPS_Snow-Accum_Sfc_RLatLon0.09_PT069H.grib2 2026-04-22 03:06 845K
20260422T00Z_MSC_RDPS_SnowDensity_Sfc_RLatLon0.09_PT069H.grib2 2026-04-22 03:06 180K
20260422T00Z_MSC_RDPS_SnowDepth_Sfc_RLatLon0.09_PT069H.grib2 2026-04-22 03:06 726K
20260422T00Z_MSC_RDPS_SoilTemp_DBS-0to10cm_RLatLon0.09_PT069H.grib2 2026-04-22 03:06 246K
20260422T00Z_MSC_RDPS_SoilTemp_Sfc_RLatLon0.09_PT069H.grib2 2026-04-22 03:06 286K
20260422T00Z_MSC_RDPS_SoilVolumetricIceContent_Sfc_RLatLon0.09_PT069H.grib2 2026-04-22 03:06 168K
20260422T00Z_MSC_RDPS_SoilVolumetricWaterContent_DBS-0to10cm_RLatLon0.09_PT069H.grib2 2026-04-22 03:06 252K
20260422T00Z_MSC_RDPS_SoilVolumetricWaterContent_DBS-0to1cm_RLatLon0.09_PT069H.grib2 2026-04-22 03:06 341K
20260422T00Z_MSC_RDPS_SpecificHumidity_AGL-120m_RLatLon0.09_PT069H.grib2 2026-04-22 03:06 491K
20260422T00Z_MSC_RDPS_SpecificHumidity_AGL-2m_RLatLon0.09_PT069H.grib2 2026-04-22 03:06 660K
20260422T00Z_MSC_RDPS_SpecificHumidity_AGL-40m_RLatLon0.09_PT069H.grib2 2026-04-22 03:06 495K
20260422T00Z_MSC_RDPS_SpecificHumidity_AGL-80m_RLatLon0.09_PT069H.grib2 2026-04-22 03:06 493K
20260422T00Z_MSC_RDPS_SpecificHumidity_IsbL-0001_RLatLon0.09_PT069H.grib2 2026-04-22 03:06 354K
20260422T00Z_MSC_RDPS_SpecificHumidity_IsbL-0005_RLatLon0.09_PT069H.grib2 2026-04-22 03:06 443K
20260422T00Z_MSC_RDPS_SpecificHumidity_IsbL-0010_RLatLon0.09_PT069H.grib2 2026-04-22 03:06 385K
20260422T00Z_MSC_RDPS_SpecificHumidity_IsbL-0020_RLatLon0.09_PT069H.grib2 2026-04-22 03:06 377K
20260422T00Z_MSC_RDPS_SpecificHumidity_IsbL-0030_RLatLon0.09_PT069H.grib2 2026-04-22 03:06 437K
20260422T00Z_MSC_RDPS_SpecificHumidity_IsbL-0050_RLatLon0.09_PT069H.grib2 2026-04-22 03:06 466K
20260422T00Z_MSC_RDPS_SpecificHumidity_IsbL-0100_RLatLon0.09_PT069H.grib2 2026-04-22 03:06 410K
20260422T00Z_MSC_RDPS_SpecificHumidity_IsbL-0150_RLatLon0.09_PT069H.grib2 2026-04-22 03:06 438K
20260422T00Z_MSC_RDPS_SpecificHumidity_IsbL-0175_RLatLon0.09_PT069H.grib2 2026-04-22 03:06 454K
20260422T00Z_MSC_RDPS_SpecificHumidity_IsbL-0200_RLatLon0.09_PT069H.grib2 2026-04-22 03:06 466K
20260422T00Z_MSC_RDPS_SpecificHumidity_IsbL-0225_RLatLon0.09_PT069H.grib2 2026-04-22 03:06 577K
20260422T00Z_MSC_RDPS_SpecificHumidity_IsbL-0250_RLatLon0.09_PT069H.grib2 2026-04-22 03:06 577K
20260422T00Z_MSC_RDPS_SpecificHumidity_IsbL-0275_RLatLon0.09_PT069H.grib2 2026-04-22 03:06 492K
20260422T00Z_MSC_RDPS_SpecificHumidity_IsbL-0300_RLatLon0.09_PT069H.grib2 2026-04-22 03:06 561K
20260422T00Z_MSC_RDPS_SpecificHumidity_IsbL-0350_RLatLon0.09_PT069H.grib2 2026-04-22 03:06 548K
20260422T00Z_MSC_RDPS_SpecificHumidity_IsbL-0400_RLatLon0.09_PT069H.grib2 2026-04-22 03:06 533K
20260422T00Z_MSC_RDPS_SpecificHumidity_IsbL-0450_RLatLon0.09_PT069H.grib2 2026-04-22 03:06 582K
20260422T00Z_MSC_RDPS_SpecificHumidity_IsbL-0500_RLatLon0.09_PT069H.grib2 2026-04-22 03:06 522K
20260422T00Z_MSC_RDPS_SpecificHumidity_IsbL-0550_RLatLon0.09_PT069H.grib2 2026-04-22 03:06 581K
20260422T00Z_MSC_RDPS_SpecificHumidity_IsbL-0600_RLatLon0.09_PT069H.grib2 2026-04-22 03:06 649K
20260422T00Z_MSC_RDPS_SpecificHumidity_IsbL-0650_RLatLon0.09_PT069H.grib2 2026-04-22 03:06 566K
20260422T00Z_MSC_RDPS_SpecificHumidity_IsbL-0700_RLatLon0.09_PT069H.grib2 2026-04-22 03:06 609K
20260422T00Z_MSC_RDPS_SpecificHumidity_IsbL-0750_RLatLon0.09_PT069H.grib2 2026-04-22 03:06 664K
20260422T00Z_MSC_RDPS_SpecificHumidity_IsbL-0800_RLatLon0.09_PT069H.grib2 2026-04-22 03:06 743K
20260422T00Z_MSC_RDPS_SpecificHumidity_IsbL-0850_RLatLon0.09_PT069H.grib2 2026-04-22 03:06 803K
20260422T00Z_MSC_RDPS_SpecificHumidity_IsbL-0875_RLatLon0.09_PT069H.grib2 2026-04-22 03:06 690K
20260422T00Z_MSC_RDPS_SpecificHumidity_IsbL-0900_RLatLon0.09_PT069H.grib2 2026-04-22 03:06 704K
20260422T00Z_MSC_RDPS_SpecificHumidity_IsbL-0925_RLatLon0.09_PT069H.grib2 2026-04-22 03:06 707K
20260422T00Z_MSC_RDPS_SpecificHumidity_IsbL-0950_RLatLon0.09_PT069H.grib2 2026-04-22 03:06 706K
20260422T00Z_MSC_RDPS_SpecificHumidity_IsbL-0970_RLatLon0.09_PT069H.grib2 2026-04-22 03:06 699K
20260422T00Z_MSC_RDPS_SpecificHumidity_IsbL-0985_RLatLon0.09_PT069H.grib2 2026-04-22 03:06 692K
20260422T00Z_MSC_RDPS_SpecificHumidity_IsbL-1000_RLatLon0.09_PT069H.grib2 2026-04-22 03:06 685K
20260422T00Z_MSC_RDPS_SpecificHumidity_IsbL-1015_RLatLon0.09_PT069H.grib2 2026-04-22 03:06 672K
20260422T00Z_MSC_RDPS_SpecificHumidity_Sfc_RLatLon0.09_PT069H.grib2 2026-04-22 03:06 347K
20260422T00Z_MSC_RDPS_StormRelativeHelicity_EtaL-10000_RLatLon0.09_PT069H.grib2 2026-04-22 03:06 1.1M
20260422T00Z_MSC_RDPS_StormSeverityIndex_EtaL-10000_RLatLon0.09_PT069H.grib2 2026-04-22 03:06 1.2M
20260422T00Z_MSC_RDPS_Thickness_IsbL-0850to0700_RLatLon0.09_PT069H.grib2 2026-04-22 03:06 178K
20260422T00Z_MSC_RDPS_Thickness_IsbL-1000to0500_RLatLon0.09_PT069H.grib2 2026-04-22 03:06 201K
20260422T00Z_MSC_RDPS_Thickness_IsbL-1000to0850_RLatLon0.09_PT069H.grib2 2026-04-22 03:06 190K
20260422T00Z_MSC_RDPS_TotalCloudCover_Sfc_RLatLon0.09_PT069H.grib2 2026-04-22 03:06 655K
20260422T00Z_MSC_RDPS_TotalTotalsIndex_Sfc_RLatLon0.09_PT069H.grib2 2026-04-22 03:06 2.4M
20260422T00Z_MSC_RDPS_UVIndex-ClearSky_Sfc_RLatLon0.09_PT069H.grib2 2026-04-22 03:06 200K
20260422T00Z_MSC_RDPS_UVIndex_Sfc_RLatLon0.09_PT069H.grib2 2026-04-22 03:06 459K
20260422T00Z_MSC_RDPS_UpwardLongwaveRadiationFlux_NTAtm_RLatLon0.09_PT069H.grib2 2026-04-22 03:06 389K
20260422T00Z_MSC_RDPS_UpwardShortwaveRadiationFlux_NTAtm_RLatLon0.09_PT069H.grib2 2026-04-22 03:06 502K
20260422T00Z_MSC_RDPS_VerticalVelocity_IsbL-0250_RLatLon0.09_PT069H.grib2 2026-04-22 03:06 473K
20260422T00Z_MSC_RDPS_VerticalVelocity_IsbL-0500_RLatLon0.09_PT069H.grib2 2026-04-22 03:06 587K
20260422T00Z_MSC_RDPS_VerticalVelocity_IsbL-0700_RLatLon0.09_PT069H.grib2 2026-04-22 03:06 630K
20260422T00Z_MSC_RDPS_VerticalVelocity_IsbL-0850_RLatLon0.09_PT069H.grib2 2026-04-22 03:06 705K
20260422T00Z_MSC_RDPS_VerticalWindShear_EtaL-6500_RLatLon0.09_PT069H.grib2 2026-04-22 03:06 1.2M
20260422T00Z_MSC_RDPS_WindChill_Sfc_RLatLon0.09_PT069H.grib2 2026-04-22 03:06 1.1M
20260422T00Z_MSC_RDPS_WindDir_AGL-10m_RLatLon0.09_PT069H.grib2 2026-04-22 03:06 1.0M
20260422T00Z_MSC_RDPS_WindDir_AGL-120m_RLatLon0.09_PT069H.grib2 2026-04-22 03:06 623K
20260422T00Z_MSC_RDPS_WindDir_AGL-40m_RLatLon0.09_PT069H.grib2 2026-04-22 03:06 644K
20260422T00Z_MSC_RDPS_WindDir_AGL-80m_RLatLon0.09_PT069H.grib2 2026-04-22 03:06 632K
20260422T00Z_MSC_RDPS_WindDir_IsbL-0001_RLatLon0.09_PT069H.grib2 2026-04-22 03:06 282K
20260422T00Z_MSC_RDPS_WindDir_IsbL-0005_RLatLon0.09_PT069H.grib2 2026-04-22 03:06 370K
20260422T00Z_MSC_RDPS_WindDir_IsbL-0010_RLatLon0.09_PT069H.grib2 2026-04-22 03:06 400K
20260422T00Z_MSC_RDPS_WindDir_IsbL-0020_RLatLon0.09_PT069H.grib2 2026-04-22 03:06 416K
20260422T00Z_MSC_RDPS_WindDir_IsbL-0030_RLatLon0.09_PT069H.grib2 2026-04-22 03:06 408K
20260422T00Z_MSC_RDPS_WindDir_IsbL-0050_RLatLon0.09_PT069H.grib2 2026-04-22 03:06 446K
20260422T00Z_MSC_RDPS_WindDir_IsbL-0100_RLatLon0.09_PT069H.grib2 2026-04-22 03:06 431K
20260422T00Z_MSC_RDPS_WindDir_IsbL-0150_RLatLon0.09_PT069H.grib2 2026-04-22 03:06 425K
20260422T00Z_MSC_RDPS_WindDir_IsbL-0175_RLatLon0.09_PT069H.grib2 2026-04-22 03:06 447K
20260422T00Z_MSC_RDPS_WindDir_IsbL-0200_RLatLon0.09_PT069H.grib2 2026-04-22 03:06 451K
20260422T00Z_MSC_RDPS_WindDir_IsbL-0225_RLatLon0.09_PT069H.grib2 2026-04-22 03:06 444K
20260422T00Z_MSC_RDPS_WindDir_IsbL-0250_RLatLon0.09_PT069H.grib2 2026-04-22 03:06 441K
20260422T00Z_MSC_RDPS_WindDir_IsbL-0275_RLatLon0.09_PT069H.grib2 2026-04-22 03:06 463K
20260422T00Z_MSC_RDPS_WindDir_IsbL-0300_RLatLon0.09_PT069H.grib2 2026-04-22 03:06 466K
20260422T00Z_MSC_RDPS_WindDir_IsbL-0350_RLatLon0.09_PT069H.grib2 2026-04-22 03:06 485K
20260422T00Z_MSC_RDPS_WindDir_IsbL-0400_RLatLon0.09_PT069H.grib2 2026-04-22 03:06 508K
20260422T00Z_MSC_RDPS_WindDir_IsbL-0450_RLatLon0.09_PT069H.grib2 2026-04-22 03:06 526K
20260422T00Z_MSC_RDPS_WindDir_IsbL-0500_RLatLon0.09_PT069H.grib2 2026-04-22 03:06 537K
20260422T00Z_MSC_RDPS_WindDir_IsbL-0550_RLatLon0.09_PT069H.grib2 2026-04-22 03:06 559K
20260422T00Z_MSC_RDPS_WindDir_IsbL-0600_RLatLon0.09_PT069H.grib2 2026-04-22 03:06 591K
20260422T00Z_MSC_RDPS_WindDir_IsbL-0650_RLatLon0.09_PT069H.grib2 2026-04-22 03:06 633K
20260422T00Z_MSC_RDPS_WindDir_IsbL-0700_RLatLon0.09_PT069H.grib2 2026-04-22 03:06 680K
20260422T00Z_MSC_RDPS_WindDir_IsbL-0750_RLatLon0.09_PT069H.grib2 2026-04-22 03:06 734K
20260422T00Z_MSC_RDPS_WindDir_IsbL-0800_RLatLon0.09_PT069H.grib2 2026-04-22 03:06 801K
20260422T00Z_MSC_RDPS_WindDir_IsbL-0850_RLatLon0.09_PT069H.grib2 2026-04-22 03:06 873K
20260422T00Z_MSC_RDPS_WindDir_IsbL-0875_RLatLon0.09_PT069H.grib2 2026-04-22 03:06 901K
20260422T00Z_MSC_RDPS_WindDir_IsbL-0900_RLatLon0.09_PT069H.grib2 2026-04-22 03:06 917K
20260422T00Z_MSC_RDPS_WindDir_IsbL-0925_RLatLon0.09_PT069H.grib2 2026-04-22 03:06 930K
20260422T00Z_MSC_RDPS_WindDir_IsbL-0950_RLatLon0.09_PT069H.grib2 2026-04-22 03:06 926K
20260422T00Z_MSC_RDPS_WindDir_IsbL-0970_RLatLon0.09_PT069H.grib2 2026-04-22 03:06 933K
20260422T00Z_MSC_RDPS_WindDir_IsbL-0985_RLatLon0.09_PT069H.grib2 2026-04-22 03:06 944K
20260422T00Z_MSC_RDPS_WindDir_IsbL-1000_RLatLon0.09_PT069H.grib2 2026-04-22 03:06 956K
20260422T00Z_MSC_RDPS_WindDir_IsbL-1015_RLatLon0.09_PT069H.grib2 2026-04-22 03:06 972K
20260422T00Z_MSC_RDPS_WindGust-Max_AGL-10m_RLatLon0.09_PT069H.grib2 2026-04-22 03:06 950K
20260422T00Z_MSC_RDPS_WindGust-Min_AGL-10m_RLatLon0.09_PT069H.grib2 2026-04-22 03:06 970K
20260422T00Z_MSC_RDPS_WindGust_AGL-10m_RLatLon0.09_PT069H.grib2 2026-04-22 03:06 1.0M
20260422T00Z_MSC_RDPS_WindSpeed_AGL-10m_RLatLon0.09_PT069H.grib2 2026-04-22 03:06 846K
20260422T00Z_MSC_RDPS_WindSpeed_AGL-120m_RLatLon0.09_PT069H.grib2 2026-04-22 03:06 537K
20260422T00Z_MSC_RDPS_WindSpeed_AGL-40m_RLatLon0.09_PT069H.grib2 2026-04-22 03:06 672K
20260422T00Z_MSC_RDPS_WindSpeed_AGL-80m_RLatLon0.09_PT069H.grib2 2026-04-22 03:06 538K
20260422T00Z_MSC_RDPS_WindSpeed_IsbL-0001_RLatLon0.09_PT069H.grib2 2026-04-22 03:06 255K
20260422T00Z_MSC_RDPS_WindSpeed_IsbL-0005_RLatLon0.09_PT069H.grib2 2026-04-22 03:06 300K
20260422T00Z_MSC_RDPS_WindSpeed_IsbL-0010_RLatLon0.09_PT069H.grib2 2026-04-22 03:06 316K
20260422T00Z_MSC_RDPS_WindSpeed_IsbL-0020_RLatLon0.09_PT069H.grib2 2026-04-22 03:06 434K
20260422T00Z_MSC_RDPS_WindSpeed_IsbL-0030_RLatLon0.09_PT069H.grib2 2026-04-22 03:06 335K
20260422T00Z_MSC_RDPS_WindSpeed_IsbL-0050_RLatLon0.09_PT069H.grib2 2026-04-22 03:06 477K
20260422T00Z_MSC_RDPS_WindSpeed_IsbL-0100_RLatLon0.09_PT069H.grib2 2026-04-22 03:06 487K
20260422T00Z_MSC_RDPS_WindSpeed_IsbL-0150_RLatLon0.09_PT069H.grib2 2026-04-22 03:06 387K
20260422T00Z_MSC_RDPS_WindSpeed_IsbL-0175_RLatLon0.09_PT069H.grib2 2026-04-22 03:06 440K
20260422T00Z_MSC_RDPS_WindSpeed_IsbL-0200_RLatLon0.09_PT069H.grib2 2026-04-22 03:06 459K
20260422T00Z_MSC_RDPS_WindSpeed_IsbL-0225_RLatLon0.09_PT069H.grib2 2026-04-22 03:06 464K
20260422T00Z_MSC_RDPS_WindSpeed_IsbL-0250_RLatLon0.09_PT069H.grib2 2026-04-22 03:06 463K
20260422T00Z_MSC_RDPS_WindSpeed_IsbL-0275_RLatLon0.09_PT069H.grib2 2026-04-22 03:06 478K
20260422T00Z_MSC_RDPS_WindSpeed_IsbL-0300_RLatLon0.09_PT069H.grib2 2026-04-22 03:06 473K
20260422T00Z_MSC_RDPS_WindSpeed_IsbL-0350_RLatLon0.09_PT069H.grib2 2026-04-22 03:06 482K
20260422T00Z_MSC_RDPS_WindSpeed_IsbL-0400_RLatLon0.09_PT069H.grib2 2026-04-22 03:06 484K
20260422T00Z_MSC_RDPS_WindSpeed_IsbL-0450_RLatLon0.09_PT069H.grib2 2026-04-22 03:06 466K
20260422T00Z_MSC_RDPS_WindSpeed_IsbL-0500_RLatLon0.09_PT069H.grib2 2026-04-22 03:06 467K
20260422T00Z_MSC_RDPS_WindSpeed_IsbL-0550_RLatLon0.09_PT069H.grib2 2026-04-22 03:06 469K
20260422T00Z_MSC_RDPS_WindSpeed_IsbL-0600_RLatLon0.09_PT069H.grib2 2026-04-22 03:06 599K
20260422T00Z_MSC_RDPS_WindSpeed_IsbL-0650_RLatLon0.09_PT069H.grib2 2026-04-22 03:06 619K
20260422T00Z_MSC_RDPS_WindSpeed_IsbL-0700_RLatLon0.09_PT069H.grib2 2026-04-22 03:06 686K
20260422T00Z_MSC_RDPS_WindSpeed_IsbL-0750_RLatLon0.09_PT069H.grib2 2026-04-22 03:06 716K
20260422T00Z_MSC_RDPS_WindSpeed_IsbL-0800_RLatLon0.09_PT069H.grib2 2026-04-22 03:06 768K
20260422T00Z_MSC_RDPS_WindSpeed_IsbL-0850_RLatLon0.09_PT069H.grib2 2026-04-22 03:06 818K
20260422T00Z_MSC_RDPS_WindSpeed_IsbL-0875_RLatLon0.09_PT069H.grib2 2026-04-22 03:06 836K
20260422T00Z_MSC_RDPS_WindSpeed_IsbL-0900_RLatLon0.09_PT069H.grib2 2026-04-22 03:06 851K
20260422T00Z_MSC_RDPS_WindSpeed_IsbL-0925_RLatLon0.09_PT069H.grib2 2026-04-22 03:06 863K
20260422T00Z_MSC_RDPS_WindSpeed_IsbL-0950_RLatLon0.09_PT069H.grib2 2026-04-22 03:06 859K
20260422T00Z_MSC_RDPS_WindSpeed_IsbL-0970_RLatLon0.09_PT069H.grib2 2026-04-22 03:06 861K
20260422T00Z_MSC_RDPS_WindSpeed_IsbL-0985_RLatLon0.09_PT069H.grib2 2026-04-22 03:06 860K
20260422T00Z_MSC_RDPS_WindSpeed_IsbL-1000_RLatLon0.09_PT069H.grib2 2026-04-22 03:06 855K
20260422T00Z_MSC_RDPS_WindSpeed_IsbL-1015_RLatLon0.09_PT069H.grib2 2026-04-22 03:06 848K
20260422T00Z_MSC_RDPS_WindU_AGL-10m_RLatLon0.09_PT069H.grib2 2026-04-22 03:06 437K
20260422T00Z_MSC_RDPS_WindU_AGL-120m_RLatLon0.09_PT069H.grib2 2026-04-22 03:06 420K
20260422T00Z_MSC_RDPS_WindU_AGL-40m_RLatLon0.09_PT069H.grib2 2026-04-22 03:06 540K
20260422T00Z_MSC_RDPS_WindU_AGL-80m_RLatLon0.09_PT069H.grib2 2026-04-22 03:06 537K
20260422T00Z_MSC_RDPS_WindU_IsbL-0001_RLatLon0.09_PT069H.grib2 2026-04-22 03:06 295K
20260422T00Z_MSC_RDPS_WindU_IsbL-0005_RLatLon0.09_PT069H.grib2 2026-04-22 03:06 291K
20260422T00Z_MSC_RDPS_WindU_IsbL-0010_RLatLon0.09_PT069H.grib2 2026-04-22 03:06 306K
20260422T00Z_MSC_RDPS_WindU_IsbL-0020_RLatLon0.09_PT069H.grib2 2026-04-22 03:06 328K
20260422T00Z_MSC_RDPS_WindU_IsbL-0030_RLatLon0.09_PT069H.grib2 2026-04-22 03:06 366K
20260422T00Z_MSC_RDPS_WindU_IsbL-0050_RLatLon0.09_PT069H.grib2 2026-04-22 03:06 362K
20260422T00Z_MSC_RDPS_WindU_IsbL-0100_RLatLon0.09_PT069H.grib2 2026-04-22 03:06 480K
20260422T00Z_MSC_RDPS_WindU_IsbL-0150_RLatLon0.09_PT069H.grib2 2026-04-22 03:06 382K
20260422T00Z_MSC_RDPS_WindU_IsbL-0175_RLatLon0.09_PT069H.grib2 2026-04-22 03:06 435K
20260422T00Z_MSC_RDPS_WindU_IsbL-0200_RLatLon0.09_PT069H.grib2 2026-04-22 03:06 453K
20260422T00Z_MSC_RDPS_WindU_IsbL-0225_RLatLon0.09_PT069H.grib2 2026-04-22 03:06 456K
20260422T00Z_MSC_RDPS_WindU_IsbL-0250_RLatLon0.09_PT069H.grib2 2026-04-22 03:06 352K
20260422T00Z_MSC_RDPS_WindU_IsbL-0275_RLatLon0.09_PT069H.grib2 2026-04-22 03:06 364K
20260422T00Z_MSC_RDPS_WindU_IsbL-0300_RLatLon0.09_PT069H.grib2 2026-04-22 03:06 359K
20260422T00Z_MSC_RDPS_WindU_IsbL-0350_RLatLon0.09_PT069H.grib2 2026-04-22 03:06 366K
20260422T00Z_MSC_RDPS_WindU_IsbL-0400_RLatLon0.09_PT069H.grib2 2026-04-22 03:06 368K
20260422T00Z_MSC_RDPS_WindU_IsbL-0450_RLatLon0.09_PT069H.grib2 2026-04-22 03:06 472K
20260422T00Z_MSC_RDPS_WindU_IsbL-0500_RLatLon0.09_PT069H.grib2 2026-04-22 03:06 473K
20260422T00Z_MSC_RDPS_WindU_IsbL-0550_RLatLon0.09_PT069H.grib2 2026-04-22 03:06 476K
20260422T00Z_MSC_RDPS_WindU_IsbL-0600_RLatLon0.09_PT069H.grib2 2026-04-22 03:06 487K
20260422T00Z_MSC_RDPS_WindU_IsbL-0650_RLatLon0.09_PT069H.grib2 2026-04-22 03:06 505K
20260422T00Z_MSC_RDPS_WindU_IsbL-0700_RLatLon0.09_PT069H.grib2 2026-04-22 03:06 511K
20260422T00Z_MSC_RDPS_WindU_IsbL-0750_RLatLon0.09_PT069H.grib2 2026-04-22 03:06 538K
20260422T00Z_MSC_RDPS_WindU_IsbL-0800_RLatLon0.09_PT069H.grib2 2026-04-22 03:06 583K
20260422T00Z_MSC_RDPS_WindU_IsbL-0850_RLatLon0.09_PT069H.grib2 2026-04-22 03:06 634K
20260422T00Z_MSC_RDPS_WindU_IsbL-0875_RLatLon0.09_PT069H.grib2 2026-04-22 03:06 647K
20260422T00Z_MSC_RDPS_WindU_IsbL-0900_RLatLon0.09_PT069H.grib2 2026-04-22 03:06 652K
20260422T00Z_MSC_RDPS_WindU_IsbL-0925_RLatLon0.09_PT069H.grib2 2026-04-22 03:06 662K
20260422T00Z_MSC_RDPS_WindU_IsbL-0950_RLatLon0.09_PT069H.grib2 2026-04-22 03:06 658K
20260422T00Z_MSC_RDPS_WindU_IsbL-0970_RLatLon0.09_PT069H.grib2 2026-04-22 03:06 659K
20260422T00Z_MSC_RDPS_WindU_IsbL-0985_RLatLon0.09_PT069H.grib2 2026-04-22 03:06 798K
20260422T00Z_MSC_RDPS_WindU_IsbL-1000_RLatLon0.09_PT069H.grib2 2026-04-22 03:06 794K
20260422T00Z_MSC_RDPS_WindU_IsbL-1015_RLatLon0.09_PT069H.grib2 2026-04-22 03:06 788K
20260422T00Z_MSC_RDPS_WindV_AGL-10m_RLatLon0.09_PT069H.grib2 2026-04-22 03:06 435K
20260422T00Z_MSC_RDPS_WindV_AGL-120m_RLatLon0.09_PT069H.grib2 2026-04-22 03:06 417K
20260422T00Z_MSC_RDPS_WindV_AGL-40m_RLatLon0.09_PT069H.grib2 2026-04-22 03:06 537K
20260422T00Z_MSC_RDPS_WindV_AGL-80m_RLatLon0.09_PT069H.grib2 2026-04-22 03:06 534K
20260422T00Z_MSC_RDPS_WindV_IsbL-0001_RLatLon0.09_PT069H.grib2 2026-04-22 03:06 293K
20260422T00Z_MSC_RDPS_WindV_IsbL-0005_RLatLon0.09_PT069H.grib2 2026-04-22 03:06 333K
20260422T00Z_MSC_RDPS_WindV_IsbL-0010_RLatLon0.09_PT069H.grib2 2026-04-22 03:06 307K
20260422T00Z_MSC_RDPS_WindV_IsbL-0020_RLatLon0.09_PT069H.grib2 2026-04-22 03:06 329K
20260422T00Z_MSC_RDPS_WindV_IsbL-0030_RLatLon0.09_PT069H.grib2 2026-04-22 03:06 329K
20260422T00Z_MSC_RDPS_WindV_IsbL-0050_RLatLon0.09_PT069H.grib2 2026-04-22 03:06 363K
20260422T00Z_MSC_RDPS_WindV_IsbL-0100_RLatLon0.09_PT069H.grib2 2026-04-22 03:06 340K
20260422T00Z_MSC_RDPS_WindV_IsbL-0150_RLatLon0.09_PT069H.grib2 2026-04-22 03:06 400K
20260422T00Z_MSC_RDPS_WindV_IsbL-0175_RLatLon0.09_PT069H.grib2 2026-04-22 03:06 335K
20260422T00Z_MSC_RDPS_WindV_IsbL-0200_RLatLon0.09_PT069H.grib2 2026-04-22 03:06 349K
20260422T00Z_MSC_RDPS_WindV_IsbL-0225_RLatLon0.09_PT069H.grib2 2026-04-22 03:06 350K
20260422T00Z_MSC_RDPS_WindV_IsbL-0250_RLatLon0.09_PT069H.grib2 2026-04-22 03:06 374K
20260422T00Z_MSC_RDPS_WindV_IsbL-0275_RLatLon0.09_PT069H.grib2 2026-04-22 03:06 384K
20260422T00Z_MSC_RDPS_WindV_IsbL-0300_RLatLon0.09_PT069H.grib2 2026-04-22 03:06 380K
20260422T00Z_MSC_RDPS_WindV_IsbL-0350_RLatLon0.09_PT069H.grib2 2026-04-22 03:06 363K
20260422T00Z_MSC_RDPS_WindV_IsbL-0400_RLatLon0.09_PT069H.grib2 2026-04-22 03:06 365K
20260422T00Z_MSC_RDPS_WindV_IsbL-0450_RLatLon0.09_PT069H.grib2 2026-04-22 03:06 364K
20260422T00Z_MSC_RDPS_WindV_IsbL-0500_RLatLon0.09_PT069H.grib2 2026-04-22 03:06 468K
20260422T00Z_MSC_RDPS_WindV_IsbL-0550_RLatLon0.09_PT069H.grib2 2026-04-22 03:06 469K
20260422T00Z_MSC_RDPS_WindV_IsbL-0600_RLatLon0.09_PT069H.grib2 2026-04-22 03:06 481K
20260422T00Z_MSC_RDPS_WindV_IsbL-0650_RLatLon0.09_PT069H.grib2 2026-04-22 03:06 498K
20260422T00Z_MSC_RDPS_WindV_IsbL-0700_RLatLon0.09_PT069H.grib2 2026-04-22 03:06 503K
20260422T00Z_MSC_RDPS_WindV_IsbL-0750_RLatLon0.09_PT069H.grib2 2026-04-22 03:06 529K
20260422T00Z_MSC_RDPS_WindV_IsbL-0800_RLatLon0.09_PT069H.grib2 2026-04-22 03:06 573K
20260422T00Z_MSC_RDPS_WindV_IsbL-0850_RLatLon0.09_PT069H.grib2 2026-04-22 03:06 619K
20260422T00Z_MSC_RDPS_WindV_IsbL-0875_RLatLon0.09_PT069H.grib2 2026-04-22 03:06 635K
20260422T00Z_MSC_RDPS_WindV_IsbL-0900_RLatLon0.09_PT069H.grib2 2026-04-22 03:06 647K
20260422T00Z_MSC_RDPS_WindV_IsbL-0925_RLatLon0.09_PT069H.grib2 2026-04-22 03:06 657K
20260422T00Z_MSC_RDPS_WindV_IsbL-0950_RLatLon0.09_PT069H.grib2 2026-04-22 03:06 654K
20260422T00Z_MSC_RDPS_WindV_IsbL-0970_RLatLon0.09_PT069H.grib2 2026-04-22 03:06 653K
20260422T00Z_MSC_RDPS_WindV_IsbL-0985_RLatLon0.09_PT069H.grib2 2026-04-22 03:06 654K
20260422T00Z_MSC_RDPS_WindV_IsbL-1000_RLatLon0.09_PT069H.grib2 2026-04-22 03:06 790K
20260422T00Z_MSC_RDPS_WindV_IsbL-1015_RLatLon0.09_PT069H.grib2 2026-04-22 03:06 785K